[ hide orbit diagram ]
For accurate long-term ephemerides, please instead use our Horizons system.This orbit viewer was implemented using two-body methods, and hence should not be used for determining accurate long-term trajectories (over several years or decades) or planetary encounter circumstances.
Orbital Elements at Epoch 2459000.5 (2020-May-31.0) TDB
Reference: JPL 43 (heliocentric ecliptic J2000)
Element | Value | Uncertainty (1-sigma) | Units |
e | .0745356004230162 | 3.531e-08 | |
a | 2.38117961120597 | 6.1818e-09 | au |
q | 2.203696959169689 | 8.2806e-08 | au |
i | 2.37178933391231 | 3.0861e-06 | deg |
node | 90.92048042634302 | 8.5215e-05 | deg |
peri | 119.0949021926445 | 8.7398e-05 | deg |
M | 229.9453656154372 | 2.0843e-05 | deg |
tp | 2459485.352893250112 (2021-Sep-27.85289325) | 7.8286e-05 | TDB |
period | 1342.105511241655 3.67 | 5.2264e-06 1.431e-08 | d yr |
n | .2682352445352409 | 1.0446e-09 | deg/d |
Q | 2.558662263242252 | 6.6426e-09 | au |
|
| | Orbit Determination Parameters
Additional Information
|
[ show covariance matrix ]
Physical Parameter Table
Parameter |
Symbol |
Value |
Units |
Sigma |
Reference |
Notes |
absolute magnitude |
H |
13.3 |
|
n/a |
MPO502172 |
|
diameter |
diameter |
3.670 |
km |
0.217 |
urn:nasa:pds:neowise_diameters_albedos::2.0[mainbelt] (http://adsabs.harvard.edu/abs/2011ApJ...741...68M) |
|
geometric albedo |
albedo |
0.522 |
|
0.097 |
urn:nasa:pds:neowise_diameters_albedos::2.0[mainbelt] (http://adsabs.harvard.edu/abs/2011ApJ...741...68M) |
|
|
1976 Kaverin (1970 GC) Discovered 1970-Apr-01 by Chernykh, L. at Nauchnyj |
Reference: DISCOVERY.DB | Last Updated: 2003-08-29 |
|
Alternate Designations
1970 GC = 1959 GN = 1966 DL = 1974 OV = 9503 P-L |
|
|